Tracking 29892 objects as of 21-Nov-2024
HD Live streaming from Space Station
objects crossing your sky now

STARLINK-31480

Track STARLINK-31480 now!
10-day predictions
STARLINK-31480 is classified as:


NORAD ID: 59306
Int'l Code: 2024-056L
Perigee: 450.1 km
Apogee: 452.3 km
Inclination: 43.0 °
Period: 93.5 minutes
Semi major axis: 6822 km
RCS: Unknown
Launch date: March 24, 2024
Source: United States (US)
Launch site: AIR FORCE EASTERN TEST RANGE (AFETR)
Your satellite tracking list
Your tracking list is empty




NASA's NSSDC Master Catalog

Two Line Element Set (TLE):
1 59306U 24056L   24325.27910470  .00004554  00000-0  11621-3 0  9998
2 59306  43.0042  47.7410 0001610 271.1335  88.9337 15.40703973 38391
Source of the keplerian elements: AFSPC